Terminal Aerodrome Forecast
Issued by NWS Duluth, MN

Home | Current Version | Previous Version | Text Only | Print | Product List | Glossary On
Versions: 1 2 3 4 5 6 7 8 9 10 11 12 13 14 15 16 17 18 19
000
FTUS43 KDLH 032337
TAFINL
TAF
KINL 032337Z 0400/0424 14011KT P6SM SKC
     FM040100 14006KT P6SM SKC
     FM040700 13003KT 2SM BR OVC025
     FM041000 14006KT P6SM SCT025
     FM041500 15010G17KT P6SM SKC=

USA.gov is the U.S. government's official web portal to all federal, state and local government web resources and services.